TimeCST,TemperatureF,Dew PointF,Humidity,Sea Level PressureIn,VisibilityMPH,Wind Direction,Wind SpeedMPH,Gust SpeedMPH,PrecipitationIn,Events,Conditions,WindDirDegrees,DateUTC
12:15 AM,63.5,57.4,80,29.91,10.0,SSW,19.6,26.5,N/A,,Mostly Cloudy,210,2012-12-04 06:15:00
12:35 AM,63.3,57.4,81,29.91,10.0,SSW,18.4,25.3,N/A,,Mostly Cloudy,210,2012-12-04 06:35:00
12:55 AM,63.1,57.2,81,29.90,10.0,SW,23.0,28.8,N/A,,Mostly Cloudy,220,2012-12-04 06:55:00
1:15 AM,63.0,57.2,81,29.91,10.0,SW,21.9,27.6,N/A,,Overcast,220,2012-12-04 07:15:00
1:35 AM,63.0,57.2,81,29.91,10.0,SW,19.6,25.3,N/A,,Overcast,220,2012-12-04 07:35:00
1:55 AM,63.0,57.0,81,29.92,10.0,SW,16.1,24.2,N/A,,Overcast,220,2012-12-04 07:55:00
2:15 AM,62.1,57.4,85,29.92,7.0,SW,15.0,24.2,N/A,,Overcast,230,2012-12-04 08:15:00
2:35 AM,61.0,57.9,90,29.92,10.0,SW,15.0,18.4,N/A,,Overcast,220,2012-12-04 08:35:00
2:55 AM,60.3,58.1,93,29.92,10.0,SW,11.5,-,N/A,,Overcast,220,2012-12-04 08:55:00
3:15 AM,59.7,58.1,94,29.91,7.0,SW,11.5,-,N/A,,Overcast,230,2012-12-04 09:15:00
3:35 AM,59.2,58.1,96,29.92,10.0,West,10.4,-,N/A,,Overcast,270,2012-12-04 09:35:00
3:55 AM,57.0,55.9,96,29.94,2.5,NNW,19.6,25.3,N/A,,Overcast,340,2012-12-04 09:55:00
4:15 AM,52.0,50.7,95,29.96,4.0,NNW,16.1,-,N/A,,Overcast,340,2012-12-04 10:15:00
4:35 AM,50.4,49.5,97,29.98,4.0,NNW,13.8,-,N/A,,Overcast,340,2012-12-04 10:35:00
5:15 AM,48.6,47.7,97,30.01,4.0,North,8.1,-,N/A,,Overcast,350,2012-12-04 11:15:00
5:35 AM,48.4,47.5,97,30.01,5.0,North,13.8,19.6,N/A,,Overcast,350,2012-12-04 11:35:00
6:15 AM,47.1,45.7,95,30.03,7.0,North,17.3,20.7,N/A,,Overcast,350,2012-12-04 12:15:00
6:35 AM,46.2,44.1,92,30.04,7.0,North,11.5,19.6,N/A,,Overcast,360,2012-12-04 12:35:00
6:55 AM,45.5,43.2,92,30.04,7.0,NNE,8.1,-,N/A,,Overcast,20,2012-12-04 12:55:00
7:15 AM,45.1,43.5,94,30.03,7.0,NE,3.5,-,N/A,,Overcast,50,2012-12-04 13:15:00
7:35 AM,45.3,43.9,95,30.04,5.0,Calm,Calm,-,N/A,,Mostly Cloudy,0,2012-12-04 13:35:00
7:55 AM,45.5,44.4,96,30.04,10.0,SE,3.5,-,N/A,,Mostly Cloudy,140,2012-12-04 13:55:00
8:15 AM,45.5,44.6,97,30.05,10.0,Calm,Calm,-,N/A,,Mostly Cloudy,0,2012-12-04 14:15:00
8:35 AM,45.7,44.6,96,30.07,10.0,Calm,Calm,-,N/A,,Mostly Cloudy,0,2012-12-04 14:35:00
9:15 AM,46.4,45.0,95,30.08,10.0,Calm,Calm,-,N/A,,Overcast,0,2012-12-04 15:15:00
9:35 AM,46.8,45.3,95,30.09,10.0,SW,3.5,-,N/A,,Overcast,220,2012-12-04 15:35:00
9:55 AM,47.3,45.7,94,30.09,10.0,WSW,4.6,-,N/A,,Mostly Cloudy,240,2012-12-04 15:55:00
10:15 AM,48.0,46.4,94,30.09,10.0,WSW,4.6,-,N/A,,Mostly Cloudy,240,2012-12-04 16:15:00
10:35 AM,48.6,46.6,93,30.09,10.0,WSW,4.6,-,N/A,,Scattered Clouds,250,2012-12-04 16:35:00
10:55 AM,49.6,46.6,89,30.08,10.0,West,5.8,-,N/A,,Scattered Clouds,270,2012-12-04 16:55:00
11:15 AM,50.7,45.1,81,30.08,10.0,WNW,6.9,-,N/A,,Mostly Cloudy,300,2012-12-04 17:15:00
11:35 AM,51.1,42.6,73,30.08,10.0,WNW,6.9,-,N/A,,Overcast,290,2012-12-04 17:35:00
11:55 AM,51.4,41.9,70,30.08,10.0,West,11.5,-,N/A,,Overcast,280,2012-12-04 17:55:00
12:15 PM,51.6,42.3,70,30.08,10.0,West,10.4,-,N/A,,Overcast,280,2012-12-04 18:15:00
12:35 PM,52.0,43.0,71,30.08,10.0,West,9.2,-,N/A,,Mostly Cloudy,280,2012-12-04 18:35:00
12:55 PM,53.1,43.5,70,30.08,10.0,West,8.1,-,N/A,,Scattered Clouds,280,2012-12-04 18:55:00
1:15 PM,54.0,42.3,65,30.08,10.0,WNW,6.9,-,N/A,,Scattered Clouds,300,2012-12-04 19:15:00
1:35 PM,54.3,37.4,53,30.08,10.0,NW,12.7,-,N/A,,Scattered Clouds,320,2012-12-04 19:35:00
1:55 PM,53.8,35.1,49,30.07,10.0,NNW,11.5,-,N/A,,Clear,330,2012-12-04 19:55:00
2:15 PM,53.8,35.8,51,30.08,10.0,NW,9.2,-,N/A,,Clear,320,2012-12-04 20:15:00
2:35 PM,54.0,35.8,50,30.08,10.0,NW,8.1,-,N/A,,Clear,310,2012-12-04 20:35:00
2:55 PM,52.9,36.9,55,30.08,10.0,NW,5.8,-,N/A,,Clear,310,2012-12-04 20:55:00
3:15 PM,52.7,37.8,57,30.09,10.0,WNW,5.8,-,N/A,,Clear,300,2012-12-04 21:15:00
3:35 PM,52.7,36.3,54,30.10,10.0,West,3.5,-,N/A,,Clear,280,2012-12-04 21:35:00
3:55 PM,51.3,37.4,59,30.11,10.0,West,3.5,-,N/A,,Clear,260,2012-12-04 21:55:00
4:15 PM,50.2,37.2,61,30.11,10.0,West,5.8,-,N/A,,Clear,260,2012-12-04 22:15:00
4:35 PM,48.7,37.6,65,30.12,10.0,West,6.9,-,N/A,,Clear,260,2012-12-04 22:35:00
4:55 PM,47.1,36.9,68,30.12,10.0,WSW,5.8,-,N/A,,Clear,250,2012-12-04 22:55:00
5:15 PM,45.3,35.8,69,30.13,10.0,WSW,6.9,-,N/A,,Clear,250,2012-12-04 23:15:00
5:35 PM,44.2,35.2,71,30.13,10.0,WSW,6.9,-,N/A,,Clear,250,2012-12-04 23:35:00
5:55 PM,43.3,35.1,73,30.13,10.0,WSW,6.9,-,N/A,,Clear,240,2012-12-04 23:55:00
6:15 PM,42.3,35.6,77,30.14,10.0,WSW,8.1,-,N/A,,Clear,240,2012-12-05 00:15:00
6:35 PM,42.1,35.6,78,30.15,10.0,WSW,8.1,-,N/A,,Clear,250,2012-12-05 00:35:00
6:55 PM,43.0,34.7,73,30.15,10.0,WSW,9.2,-,N/A,,Clear,250,2012-12-05 00:55:00
7:15 PM,45.3,34.7,66,30.15,10.0,West,10.4,-,N/A,,Clear,270,2012-12-05 01:15:00
7:35 PM,46.6,34.0,62,30.15,10.0,West,11.5,-,N/A,,Clear,270,2012-12-05 01:35:00
8:15 PM,45.5,33.3,62,30.15,10.0,West,10.4,-,N/A,,Clear,260,2012-12-05 02:15:00
8:35 PM,44.4,33.1,64,30.16,10.0,West,9.2,-,N/A,,Clear,280,2012-12-05 02:35:00
8:55 PM,44.6,32.5,63,30.17,10.0,West,10.4,-,N/A,,Clear,270,2012-12-05 02:55:00
9:15 PM,43.9,32.4,64,30.18,10.0,West,9.2,-,N/A,,Clear,270,2012-12-05 03:15:00
9:35 PM,42.1,32.4,68,30.18,10.0,West,8.1,-,N/A,,Clear,260,2012-12-05 03:35:00
10:15 PM,40.6,32.0,71,30.20,10.0,West,4.6,-,N/A,,Clear,260,2012-12-05 04:15:00
10:35 PM,39.4,31.8,74,30.20,10.0,West,6.9,-,N/A,,Clear,270,2012-12-05 04:35:00
10:55 PM,39.2,31.6,74,30.21,10.0,West,5.8,-,N/A,,Clear,280,2012-12-05 04:55:00
11:15 PM,39.2,31.6,74,30.22,10.0,WNW,8.1,-,N/A,,Clear,290,2012-12-05 05:15:00
11:35 PM,39.7,31.8,73,30.23,10.0,WNW,8.1,-,N/A,,Clear,300,2012-12-05 05:35:00
11:55 PM,39.0,31.5,74,30.24,10.0,NW,4.6,-,N/A,,Clear,310,2012-12-05 05:55:00